• en France
  • Liste des pays
  • À 7 jours
  • Température de l'eau
  • Carte satellitaire
  • Carte météo
  • Widgets météo
  • user-avatar
    Se connecter

    Météo par heure à Hamhŭng

    Ce jour, 21 Février, Mercredi

    Heure Température Précipitation Vent Pression Humidité
    00:00 -8°C° 0 mm 4 m/s 765 mmHg 51%
    01:00 -9°C° 0 mm 4 m/s 765 mmHg 51%
    02:00 -8°C° 0 mm 3 m/s 766 mmHg 51%
    03:00 -10°C° 0 mm 4 m/s 765 mmHg 50%
    04:00 -9°C° 0 mm 3 m/s 766 mmHg 50%
    05:00 -9°C° 0 mm 3 m/s 766 mmHg 50%
    06:00 -10°C° 0 mm 3 m/s 766 mmHg 50%
    07:00 -9°C° 0 mm 3 m/s 766 mmHg 47%
    08:00 -8°C° 0 mm 3 m/s 766 mmHg 43%
    09:00 -7°C° 0 mm 3 m/s 766 mmHg 40%
    10:00 -6°C° 0 mm 3 m/s 766 mmHg 36%
    11:00 -4°C° 0 mm 3 m/s 765 mmHg 32%
    12:00 -3°C° 0 mm 4 m/s 765 mmHg 28%
    13:00 -2°C° 0 mm 4 m/s 764 mmHg 28%
    14:00 -2°C° 0 mm 5 m/s 763 mmHg 28%
    15:00 -1°C° 0 mm 5 m/s 763 mmHg 29%
    16:00 -2°C° 0 mm 5 m/s 763 mmHg 32%
    17:00 -4°C° 0 mm 5 m/s 763 mmHg 36%
    18:00 -5°C° 0 mm 5 m/s 763 mmHg 39%
    19:00 -6°C° 0 mm 5 m/s 763 mmHg 43%
    20:00 -5°C° 0 mm 4 m/s 763 mmHg 46%
    21:00 -7°C° 0 mm 4 m/s 763 mmHg 50%
    22:00 -8°C° 0 mm 4 m/s 764 mmHg 51%
    23:00 -8°C° 0 mm 4 m/s 764 mmHg 53%

    Demain, 22 Février, Jeudi

    Heure Température Précipitation Vent Pression Humidité
    00:00 -8°C° 0 mm 4 m/s 764 mmHg 54%
    01:00 -7°C° 0 mm 3 m/s 764 mmHg 55%
    02:00 -8°C° 0 mm 3 m/s 764 mmHg 56%
    03:00 -8°C° 0 mm 3 m/s 764 mmHg 57%
    04:00 -8°C° 0 mm 3 m/s 763 mmHg 59%
    05:00 -8°C° 0 mm 3 m/s 763 mmHg 60%
    06:00 -8°C° 0 mm 3 m/s 763 mmHg 62%
    07:00 -7°C° 0 mm 3 m/s 762 mmHg 59%
    08:00 -6°C° 0 mm 3 m/s 762 mmHg 57%
    09:00 -5°C° 0 mm 3 m/s 762 mmHg 55%
    10:00 -3°C° 0 mm 4 m/s 761 mmHg 52%
    11:00 -1°C° 0 mm 5 m/s 760 mmHg 50%
    12:00 +1°C° 0 mm 6 m/s 760 mmHg 48%
    13:00 +1°C° 0,1 mm 6 m/s 759 mmHg 51%
    14:00 +2°C° 0,1 mm 7 m/s 758 mmHg 53%
    15:00 +2°C° 0,1 mm 7 m/s 757 mmHg 56%
    16:00 0°C° 0,4 mm 7 m/s 757 mmHg 65%
    17:00 -1°C° 0,4 mm 6 m/s 757 mmHg 74%
    18:00 -2°C° 0,4 mm 6 m/s 756 mmHg 83%
    19:00 -1°C° 0,2 mm 5 m/s 757 mmHg 84%
    20:00 -2°C° 0,2 mm 5 m/s 757 mmHg 86%
    21:00 -2°C° 0,2 mm 4 m/s 757 mmHg 87%
    22:00 -4°C° 0 mm 5 m/s 757 mmHg 85%
    23:00 -4°C° 0 mm 5 m/s 758 mmHg 83%

    Après-demain, 23 Février, Vendredi

    Heure Température Précipitation Vent Pression Humidité
    00:00 -5°C° 0 mm 5 m/s 758 mmHg 81%
    01:00 -5°C° 0 mm 5 m/s 759 mmHg 80%
    02:00 -6°C° 0 mm 5 m/s 759 mmHg 79%
    03:00 -7°C° 0 mm 4 m/s 759 mmHg 78%
    04:00 -8°C° 0 mm 4 m/s 760 mmHg 76%
    05:00 -8°C° 0 mm 4 m/s 760 mmHg 75%
    06:00 -9°C° 0 mm 4 m/s 761 mmHg 73%
    07:00 -7°C° 0 mm 3 m/s 761 mmHg 65%
    08:00 -6°C° 0 mm 3 m/s 762 mmHg 56%
    09:00 -3°C° 0 mm 2 m/s 762 mmHg 48%
    10:00 -2°C° 0 mm 3 m/s 762 mmHg 43%
    11:00 0°C° 0 mm 3 m/s 761 mmHg 38%
    12:00 +1°C° 0 mm 3 m/s 761 mmHg 34%
    13:00 +1°C° 0 mm 5 m/s 761 mmHg 36%
    14:00 +1°C° 0 mm 6 m/s 760 mmHg 39%
    15:00 0°C° 0 mm 8 m/s 760 mmHg 42%
    16:00 -1°C° 0 mm 8 m/s 760 mmHg 47%
    17:00 -1°C° 0 mm 7 m/s 760 mmHg 53%
    18:00 -2°C° 0 mm 7 m/s 760 mmHg 58%
    19:00 -4°C° 0 mm 7 m/s 761 mmHg 58%
    20:00 -5°C° 0 mm 6 m/s 762 mmHg 58%
    21:00 -8°C° 0 mm 6 m/s 763 mmHg 57%
    22:00 -8°C° 0 mm 6 m/s 764 mmHg 57%
    23:00 -8°C° 0 mm 5 m/s 765 mmHg 56%

    24 Février, Samedi

    Heure Température Précipitation Vent Pression Humidité
    00:00 -10°C° 0 mm 5 m/s 766 mmHg 55%
    01:00 -11°C° 0 mm 5 m/s 766 mmHg 56%
    02:00 -10°C° 0 mm 4 m/s 767 mmHg 56%
    03:00 -11°C° 0 mm 4 m/s 768 mmHg 57%
    04:00 -11°C° 0 mm 4 m/s 769 mmHg 57%
    05:00 -12°C° 0 mm 3 m/s 769 mmHg 58%
    06:00 -12°C° 0 mm 3 m/s 770 mmHg 58%
    07:00 -12°C° 0 mm 3 m/s 771 mmHg 52%
    08:00 -10°C° 0 mm 3 m/s 771 mmHg 46%
    09:00 -9°C° 0 mm 3 m/s 772 mmHg 40%
    10:00 -6°C° 0 mm 2 m/s 772 mmHg 35%
    11:00 -4°C° 0 mm 2 m/s 771 mmHg 29%
    12:00 0°C° 0 mm 1 m/s 771 mmHg 24%
    13:00 -2°C° 0 mm 2 m/s 771 mmHg 25%
    14:00 -1°C° 0 mm 2 m/s 770 mmHg 27%
    15:00 -1°C° 0 mm 3 m/s 769 mmHg 28%
    16:00 -2°C° 0 mm 3 m/s 769 mmHg 36%
    17:00 -4°C° 0 mm 3 m/s 769 mmHg 44%
    18:00 -4°C° 0 mm 2 m/s 770 mmHg 51%
    19:00 -5°C° 0 mm 2 m/s 770 mmHg 55%
    20:00 -6°C° 0 mm 2 m/s 770 mmHg 58%
    21:00 -6°C° 0 mm 1 m/s 771 mmHg 62%
    22:00 -6°C° 0 mm 1 m/s 771 mmHg 59%
    23:00 -6°C° 0 mm 1 m/s 771 mmHg 56%

    25 Février, Dimanche

    Heure Température Précipitation Vent Pression Humidité
    00:00 -8°C° 0 mm 2 m/s 771 mmHg 53%
    01:00 -8°C° 0 mm 2 m/s 770 mmHg 50%
    02:00 -8°C° 0 mm 2 m/s 770 mmHg 47%
    03:00 -8°C° 0 mm 2 m/s 770 mmHg 43%
    04:00 -8°C° 0 mm 2 m/s 770 mmHg 41%
    05:00 -8°C° 0 mm 2 m/s 770 mmHg 39%
    06:00 -8°C° 0 mm 2 m/s 770 mmHg 37%
    07:00 -6°C° 0 mm 1 m/s 770 mmHg 35%
    08:00 -4°C° 0 mm 1 m/s 770 mmHg 34%
    09:00 -2°C° 0 mm 1 m/s 770 mmHg 32%
    10:00 0°C° 0 mm 1 m/s 770 mmHg 30%
    11:00 +1°C° 0 mm 1 m/s 769 mmHg 28%
    12:00 +3°C° 0 mm 1 m/s 769 mmHg 26%
    13:00 +3°C° 0 mm 2 m/s 768 mmHg 29%
    14:00 +3°C° 0 mm 2 m/s 767 mmHg 31%
    15:00 +3°C° 0 mm 3 m/s 767 mmHg 33%
    16:00 +2°C° 0 mm 2 m/s 767 mmHg 41%
    17:00 +1°C° 0 mm 2 m/s 767 mmHg 49%
    18:00 -1°C° 0 mm 2 m/s 767 mmHg 57%
    19:00 -2°C° 0 mm 2 m/s 767 mmHg 60%
    20:00 -3°C° 0 mm 2 m/s 768 mmHg 62%
    21:00 -4°C° 0 mm 2 m/s 768 mmHg 65%
    22:00 -2°C° 0 mm 1 m/s 768 mmHg 64%
    23:00 -2°C° 0 mm 1 m/s 768 mmHg 63%

    26 Février, Lundi

    Heure Température Précipitation Vent Pression Humidité
    00:00 -2°C° 0 mm 1 m/s 768 mmHg 62%
    01:00 -3°C° 0 mm 1 m/s 768 mmHg 61%
    02:00 -3°C° 0 mm 1 m/s 768 mmHg 59%
    03:00 -3°C° 0 mm 1 m/s 768 mmHg 57%
    04:00 -3°C° 0 mm 1 m/s 768 mmHg 55%
    05:00 -3°C° 0 mm 1 m/s 767 mmHg 53%
    06:00 -3°C° 0 mm 1 m/s 767 mmHg 51%
    07:00 -2°C° 0 mm 1 m/s 767 mmHg 49%
    08:00 -1°C° 0 mm 0 m/s 767 mmHg 47%
    09:00 0°C° 0 mm 0 m/s 767 mmHg 45%
    10:00 +3°C° 0 mm 1 m/s 766 mmHg 44%
    11:00 +4°C° 0 mm 1 m/s 766 mmHg 43%
    12:00 +5°C° 0 mm 2 m/s 765 mmHg 42%
    13:00 +5°C° 0 mm 2 m/s 764 mmHg 44%
    14:00 +5°C° 0 mm 2 m/s 763 mmHg 46%
    15:00 +4°C° 0 mm 3 m/s 762 mmHg 48%
    16:00 +4°C° 0 mm 2 m/s 762 mmHg 56%
    17:00 +3°C° 0 mm 2 m/s 762 mmHg 64%
    18:00 +2°C° 0 mm 2 m/s 762 mmHg 71%
    19:00 +2°C° 0 mm 2 m/s 762 mmHg 73%
    20:00 +1°C° 0 mm 2 m/s 762 mmHg 76%
    21:00 +1°C° 0 mm 2 m/s 762 mmHg 78%
    22:00 +1°C° 0,1 mm 2 m/s 761 mmHg 80%
    23:00 +1°C° 0,1 mm 2 m/s 761 mmHg 81%
    Voir plus